GW5470 Weather Reports


time (UTC)temp
C
wind
direction
speed
KPH
gust
KPH
rain 1hr
cm
rain 24hr
cm
rain mn
cm
humidity
%
barometer
mb
20260504032312 9 215 0.0 0.0 0.00 0.00 0.00 76 1015.2
20260504031809 9 215 0.0 0.0 0.00 0.00 0.00 76 1015.2
20260504031307 9 215 0.0 0.0 0.00 0.00 0.00 75 1015.2
20260504030803 9 215 0.0 0.0 0.00 0.00 0.00 74 1015.3
20260504030300 10 215 0.0 0.0 0.00 0.00 0.00 73 1015.5
20260504025756 10 215 0.0 0.0 0.00 0.00 0.00 72 1015.5
20260504025253 10 215 0.0 0.0 0.00 0.00 0.00 72 1015.6
20260504024749 10 215 0.0 0.0 0.00 0.00 0.00 72 1015.6
20260504024246 10 215 0.0 1.6 0.00 0.00 0.00 71 1015.6
20260504023743 10 214 1.6 1.6 0.00 0.00 0.00 74 1015.6
20260504023239 10 215 0.0 0.0 0.00 0.00 0.00 68 1015.7
20260504022735 10 215 0.0 0.0 0.00 0.00 0.00 70 1015.9
20260504022232 10 215 1.6 1.6 0.00 0.00 0.00 69 1015.7
20260504021729 10 215 0.0 0.0 0.00 0.00 0.00 72 1015.7
20260504021226 10 215 0.0 0.0 0.00 0.00 0.00 71 1015.6
20260504020723 10 215 0.0 0.0 0.00 0.00 0.00 67 1015.4
20260504020220 10 215 0.0 0.0 0.00 0.00 0.00 68 1015.4
20260504015716 10 215 0.0 0.0 0.00 0.00 0.00 65 1015.5
20260504015212 10 215 0.0 0.0 0.00 0.00 0.00 63 1015.4
20260504014708 10 215 0.0 0.0 0.00 0.00 0.00 65 1015.2
20260504014205 11 215 0.0 0.0 0.00 0.00 0.00 66 1015.2
20260504013703 11 215 0.0 0.0 0.00 0.00 0.00 64 1015.1
20260504013200 11 215 0.0 0.0 0.00 0.00 0.00 61 1015.2
20260504012656 11 215 0.0 0.0 0.00 0.00 0.00 60 1015.3
20260504012155 11 215 0.0 0.0 0.00 0.00 0.00 61 1015.1
20260504011651 11 215 0.0 0.0 0.00 0.00 0.00 57 1015.0
20260504011148 11 215 0.0 0.0 0.00 0.00 0.00 60 1014.8
20260504010643 12 215 0.0 1.6 0.00 0.00 0.00 57 1014.8
20260504010139 12 215 0.0 0.0 0.00 0.00 0.00 56 1015.3
20260504005637 12 215 0.0 0.0 0.00 0.00 0.00 50 1015.2
20260504005133 13 215 0.0 0.0 0.00 0.00 0.00 47 1015.1
20260504004631 13 215 0.0 0.0 0.00 0.00 0.00 47 1015.0
20260504004128 13 225 1.6 1.6 0.00 0.00 0.00 43 1015.1
20260504003624 13 231 1.6 1.6 0.00 0.00 0.00 42 1015.4
20260504003121 13 227 3.2 3.2 0.00 0.00 0.00 42 1015.1
20260504002618 14 214 1.6 3.2 0.00 0.00 0.00 40 1015.4
20260504002116 14 243 3.2 3.2 0.00 0.00 0.00 40 1015.6
20260504001613 14 209 0.0 0.0 0.00 0.00 0.00 40 1015.5
20260504001109 14 148 6.4 6.4 0.00 0.00 0.00 39 1015.5
20260504000607 14 204 0.0 0.0 0.00 0.00 0.00 42 1015.5
20260504000104 14 206 1.6 1.6 0.00 0.00 0.00 40 1015.4
20260503235602 15 206 1.6 1.6 0.00 0.00 0.00 37 1015.4
20260503235058 15 181 1.6 3.2 0.00 0.00 0.00 39 1015.3
20260503234556 15 218 0.0 0.0 0.00 0.00 0.00 37 1015.4
20260503234054 15 212 0.0 0.0 0.00 0.00 0.00 46 1015.4
20260503233550 15 229 1.6 1.6 0.00 0.00 0.00 44 1015.4
20260503233046 15 210 0.0 0.0 0.00 0.00 0.00 37 1015.0
20260503232544 15 223 0.0 1.6 0.00 0.00 0.00 38 1015.1
20260503232041 15 209 0.0 1.6 0.00 0.00 0.00 38 1015.3
20260503231539 15 191 3.2 3.2 0.00 0.00 0.00 35 1015.3
20260503231035 15 206 4.8 4.8 0.00 0.00 0.00 37 1015.1
20260503230532 15 213 1.6 1.6 0.00 0.00 0.00 37 1015.1
20260503230030 15 197 1.6 1.6 0.00 0.00 0.00 38 1015.1
20260503225526 15 209 1.6 1.6 0.00 0.00 0.00 37 1015.3
20260503225021 15 187 3.2 4.8 0.00 0.00 0.00 36 1015.3
20260503224519 15 214 3.2 6.4 0.00 0.00 0.00 37 1015.5
20260503224017 15 213 1.6 3.2 0.00 0.00 0.00 41 1015.3
20260503223515 15 211 1.6 1.6 0.00 0.00 0.00 36 1015.7
20260503223010 15 228 0.0 0.0 0.00 0.00 0.00 35 1015.6
20260503222508 15 208 1.6 3.2 0.00 0.00 0.00 36 1015.7
20260503222006 15 221 1.6 1.6 0.00 0.00 0.00 36 1015.6
20260503221504 16 216 1.6 1.6 0.00 0.00 0.00 37 1015.8
20260503221001 16 222 4.8 9.7 0.00 0.00 0.00 34 1015.9
20260503220457 16 221 1.6 3.2 0.00 0.00 0.00 33 1015.9
20260503215954 16 219 1.6 3.2 0.00 0.00 0.00 34 1015.7
20260503215451 16 192 3.2 3.2 0.00 0.00 0.00 33 1015.8
20260503214948 17 188 3.2 4.8 0.00 0.00 0.00 32 1015.7
20260503214446 17 213 1.6 3.2 0.00 0.00 0.00 34 1015.8
20260503213943 17 291 1.6 6.4 0.00 0.00 0.00 33 1015.7
20260503213442 17 96 3.2 4.8 0.00 0.00 0.00 31 1015.7
20260503212937 17 275 6.4 11.3 0.00 0.00 0.00 31 1015.8
20260503212435 17 182 3.2 4.8 0.00 0.00 0.00 31 1015.8
20260503211932 17 336 9.7 11.3 0.00 0.00 0.00 30 1015.7
20260503211429 17 220 1.6 1.6 0.00 0.00 0.00 34 1015.8
20260503210924 17 263 3.2 4.8 0.00 0.00 0.00 31 1015.8
20260503210422 17 244 3.2 3.2 0.00 0.00 0.00 31 1015.8
20260503205917 17 220 1.6 3.2 0.00 0.00 0.00 35 1015.8
20260503205414 17 200 4.8 6.4 0.00 0.00 0.00 34 1015.7
20260503204910 17 209 3.2 4.8 0.00 0.00 0.00 30 1015.6
20260503204408 17 191 3.2 4.8 0.00 0.00 0.00 33 1015.8
20260503203905 17 215 1.6 3.2 0.00 0.00 0.00 30 1015.7
20260503203402 17 37 1.6 3.2 0.00 0.00 0.00 30 1015.9
20260503202859 17 216 4.8 4.8 0.00 0.00 0.00 32 1016.2
20260503202357 17 225 1.6 1.6 0.00 0.00 0.00 37 1016.1
20260503201855 17 194 3.2 3.2 0.00 0.00 0.00 35 1016.0
20260503201352 17 209 3.2 3.2 0.00 0.00 0.00 37 1016.0
20260503200849 17 183 3.2 4.8 0.00 0.00 0.00 35 1016.2
20260503200345 17 232 0.0 1.6 0.00 0.00 0.00 34 1016.3
20260503195842 17 222 1.6 1.6 0.00 0.00 0.00 36 1016.5
20260503195339 17 240 1.6 1.6 0.00 0.00 0.00 31 1016.5
20260503194836 16 206 3.2 3.2 0.00 0.00 0.00 38 1016.9
20260503194332 17 348 4.8 4.8 0.00 0.00 0.00 33 1016.8
20260503193829 17 232 4.8 4.8 0.00 0.00 0.00 33 1017.1
20260503193324 17 203 3.2 3.2 0.00 0.00 0.00 33 1017.2
20260503192820 17 210 3.2 4.8 0.00 0.00 0.00 32 1017.2
20260503192316 17 200 3.2 4.8 0.00 0.00 0.00 34 1017.1
20260503191812 16 213 4.8 4.8 0.00 0.00 0.00 31 1017.1
20260503191310 16 220 6.4 6.4 0.00 0.00 0.00 33 1017.2
20260503190806 16 244 1.6 1.6 0.00 0.00 0.00 34 1017.4
20260503190303 16 192 4.8 6.4 0.00 0.00 0.00 33 1017.7
20260503185801 16 160 4.8 6.4 0.00 0.00 0.00 34 1017.6
20260503185256 16 185 4.8 4.8 0.00 0.00 0.00 34 1017.6
20260503184756 16 117 9.7 11.3 0.00 0.00 0.00 34 1017.8
20260503184252 16 118 1.6 3.2 0.00 0.00 0.00 40 1018.0
20260503183748 16 223 4.8 6.4 0.00 0.00 0.00 34 1018.0
20260503183246 16 174 6.4 6.4 0.00 0.00 0.00 34 1018.2
20260503182743 16 159 9.7 11.3 0.00 0.00 0.00 37 1018.1
20260503182242 16 153 4.8 4.8 0.00 0.00 0.00 36 1018.4
20260503181739 16 209 1.6 3.2 0.00 0.00 0.00 31 1018.3
20260503181236 16 209 3.2 4.8 0.00 0.00 0.00 36 1018.4
20260503180732 16 221 3.2 4.8 0.00 0.00 0.00 34 1018.4
20260503180231 16 146 1.6 3.2 0.00 0.00 0.00 36 1018.7
20260503175726 16 163 4.8 6.4 0.00 0.00 0.00 37 1018.5
20260503175225 16 188 3.2 4.8 0.00 0.00 0.00 39 1018.7
20260503174721 15 166 8.0 12.9 0.00 0.00 0.00 34 1018.8
20260503174219 16 71 4.8 6.4 0.00 0.00 0.00 33 1019.0
20260503173713 15 211 4.8 4.8 0.00 0.00 0.00 37 1019.0
20260503173210 16 200 4.8 6.4 0.00 0.00 0.00 37 1019.1
20260503172707 15 229 4.8 4.8 0.00 0.00 0.00 34 1019.0
20260503172204 15 215 1.6 1.6 0.00 0.00 0.00 38 1019.0
20260503171700 13 256 4.8 6.4 0.00 0.00 0.00 34 1019.1
20260503171158 13 201 4.8 4.8 0.00 0.00 0.00 36 1019.4
20260503170654 15 255 6.4 9.7 0.00 0.00 0.00 36 1019.3
20260503170151 15 25 6.4 6.4 0.00 0.00 0.00 35 1019.3
20260503160113 13 346 3.2 3.2 0.00 0.00 0.00 44 1019.9
20260503150542 12 273 3.2 3.2 0.00 0.00 0.00 42 1020.4
20260503130932 6 211 1.6 1.6 0.00 0.00 0.00 74 1020.9
20260503130430 6 204 3.2 3.2 0.00 0.00 0.00 73 1021.0
20260503110829 -2 226 0.0 0.0 0.00 0.00 0.00 98 1020.1
20260503110325 -2 225 0.0 0.0 0.00 0.00 0.00 98 1020.2
20260503100251 -2 225 0.0 0.0 0.00 0.00 0.00 98 1019.5
20260503090211 -2 225 0.0 0.0 0.00 0.00 0.00 98 1019.2
20260503081138 -2 225 0.0 0.0 0.00 0.00 0.00 98 1019.3
20260503080634 -2 225 0.0 0.0 0.00 0.00 0.00 98 1019.5
20260503080131 -2 226 0.0 0.0 0.00 0.00 0.00 98 1019.2
20260503072608 -2 226 0.0 0.0 0.00 0.00 0.00 98 1019.0
20260503072105 -2 226 0.0 0.0 0.00 0.00 0.00 98 1018.8
20260503071602 -2 225 0.0 0.0 0.00 0.00 0.00 98 1018.9
20260503071059 -2 233 0.0 0.0 0.00 0.00 0.00 98 1019.0
20260503070555 -2 225 0.0 0.0 0.00 0.00 0.00 98 1019.0
20260503055014 -1 233 0.0 0.0 0.00 0.00 0.00 97 1019.2
20260503054510 -1 233 0.0 0.0 0.00 0.00 0.00 97 1019.2
20260503054008 -1 233 0.0 0.0 0.00 0.00 0.00 97 1019.2
20260503053506 -1 233 0.0 0.0 0.00 0.00 0.00 97 1019.2
20260503053002 0 233 0.0 0.0 0.00 0.00 0.00 97 1019.1
20260503052459 0 225 0.0 0.0 0.00 0.00 0.00 97 1019.0
20260503051955 0 233 0.0 0.0 0.00 0.00 0.00 97 1019.2
20260503051451 0 233 0.0 0.0 0.00 0.00 0.00 97 1019.2
20260503050949 0 226 0.0 0.0 0.00 0.00 0.00 97 1019.3
20260503050445 0 225 0.0 0.0 0.00 0.00 0.00 97 1019.2
20260503045943 0 233 0.0 0.0 0.00 0.00 0.00 96 1019.3
20260503045440 0 233 0.0 0.0 0.00 0.00 0.00 96 1019.2
20260503044936 0 233 0.0 0.0 0.00 0.00 0.00 96 1019.3
20260503044433 0 233 0.0 0.0 0.00 0.00 0.00 96 1019.0
20260503043931 0 233 0.0 0.0 0.00 0.00 0.00 96 1019.2
20260503043427 0 233 0.0 0.0 0.00 0.00 0.00 96 1019.1
20260503042924 0 233 0.0 0.0 0.00 0.00 0.00 96 1019.0
20260503042420 0 233 0.0 0.0 0.00 0.00 0.00 96 1019.1
20260503041917 0 233 0.0 0.0 0.00 0.00 0.00 96 1019.3
20260503041414 0 226 0.0 0.0 0.00 0.00 0.00 96 1019.3
20260503040911 0 233 0.0 0.0 0.00 0.00 0.00 96 1019.0
20260503040409 0 233 0.0 0.0 0.00 0.00 0.00 95 1018.9
20260503035906 0 233 0.0 0.0 0.00 0.03 0.03 95 1019.0
20260503035402 0 233 0.0 0.0 0.00 0.03 0.03 95 1019.1
20260503034859 1 233 0.0 0.0 0.00 0.03 0.03 95 1019.1
20260503034357 1 225 0.0 0.0 0.00 0.03 0.03 95 1018.9
20260503033854 1 225 0.0 0.0 0.00 0.03 0.03 95 1018.9
20260503033352 1 230 0.0 0.0 0.00 0.03 0.03 94 1019.0
20260503032849 1 232 0.0 0.0 0.00 0.03 0.03 94 1019.2